Wind_Speed
13 13 13 14 14 14 14 15 15 15 15 16 16 16 16 16 17 18 19 13 12 13 12 5 4 3 3 3 3 1 2 3 5 8 6 12 7 5 4 16 4 4 15 19 26
14 15 15 15 15 15 15 15 15 15 15 16 16 16 16 17 17 20 17 14 13 15 18 9 8 6 3 3 3 3 1 3 3 10 11 14 10 6 10 10 7 15 20 27 25
15 15 16 17 17 16 17 16 16 16 16 16 16 16 15 15 15 3 3 17 19 16 13 10 8 5 4 3 5 3 3 3 6 9 22 18 8 6 14 7 9 25 30 28 26
16 17 16 16 18 18 18 18 18 17 17 16 16 15 14 10 4 3 3 3 19 21 18 15 11 4 4 3 5 3 9 8 9 15 17 19 11 6 12 3 12 24 28 27 25
18 19 18 18 18 19 19 19 18 17 17 16 16 14 13 7 12 10 9 3 12 26 23 19 13 6 6 2 2 6 3 3 9 17 18 16 9 3 5 7 20 23 23 24 22
19 19 20 20 19 19 20 20 19 17 16 16 15 14 10 7 6 4 6 3 7 22 26 20 11 11 5 2 1 3 9 15 17 17 16 12 7 1 4 16 22 24 22 21 21
20 21 21 22 21 20 19 21 20 18 15 15 14 12 13 18 7 5 5 5 3 18 27 22 9 9 4 1 2 5 11 13 13 11 6 14 5 4 15 20 20 21 21 20 20
21 21 22 21 21 21 20 20 19 18 15 13 12 10 10 9 8 12 7 7 9 13 17 18 12 6 2 2 3 3 3 6 6 8 7 6 1 5 18 22 21 20 20 20 21
24 23 22 22 22 20 20 19 18 17 13 10 10 8 9 5 6 11 11 8 11 14 14 12 14 4 4 4 5 2 8 9 8 10 8 7 1 9 19 19 19 20 20 21 20
24 24 23 21 21 20 17 17 13 12 9 6 10 5 12 6 3 2 15 9 9 17 10 9 4 5 4 7 10 13 8 8 9 12 10 11 9 10 21 20 20 20 21 21 22
25 25 25 22 20 18 14 9 5 4 5 8 2 5 5 7 3 4 15 14 10 12 7 7 7 14 18 14 4 11 13 16 8 7 13 15 14 12 21 21 21 22 21 23 24
25 26 25 22 19 12 11 4 9 6 11 14 20 29 24 15 4 6 12 13 8 12 8 6 15 15 9 7 8 13 16 14 4 10 14 12 17 13 22 29 27 26 25 25 25
24 24 25 22 15 8 4 6 6 12 6 11 17 18 23 20 13 12 20 13 10 10 15 12 7 13 11 10 11 9 19 12 8 6 7 3 12 13 17 21 24 26 26 27 27
25 25 24 22 5 14 6 10 10 9 4 5 5 6 13 14 8 25 20 15 5 15 10 6 7 19 13 14 13 12 10 9 9 7 4 6 7 6 13 19 22 29 30 31 30
23 22 23 21 17 11 7 10 10 2 5 2 4 2 10 16 10 16 28 16 11 8 6 10 12 17 17 15 15 5 16 13 11 8 5 6 4 0 5 14 23 31 33 34 33
25 21 22 21 17 3 4 8 1 3 8 2 4 6 7 14 5 9 18 14 10 5 2 4 2 7 9 8 16 16 11 7 5 5 7 7 7 6 6 10 18 28 34 35 35
25 24 22 22 15 13 7 1 4 6 2 4 5 6 8 11 10 10 16 17 13 10 11 4 10 3 5 10 7 6 9 6 7 7 7 3 8 12 8 14 18 18 34 38 35
26 25 22 17 11 11 5 3 10 6 8 2 2 5 7 10 12 11 17 20 13 11 7 12 11 14 8 8 11 15 15 10 10 10 9 4 9 7 9 17 18 18 20 24 33
28 26 16 12 10 10 10 9 7 7 5 4 2 3 5 9 6 15 17 24 20 17 10 11 11 3 8 6 13 8 10 10 9 2 4 4 7 10 7 11 11 18 17 24 31
27 27 8 8 8 10 6 9 6 5 4 3 11 5 7 6 11 16 14 18 16 19 12 7 5 8 9 7 3 9 14 7 4 13 13 8 5 8 6 10 10 11 17 22 25
22 12 9 3 7 7 6 7 8 18 4 3 3 5 7 4 7 10 9 11 23 19 19 8 3 4 7 14 19 7 7 1 6 6 14 13 10 8 11 11 11 12 13 15 18
11 4 2 5 3 2 4 4 3 7 15 12 4 5 4 3 5 8 9 10 20 20 19 17 7 10 9 4 7 19 19 17 9 7 2 6 13 3 10 11 10 15 11 8 11
16 7 4 6 4 2 5 6 6 6 14 6 9 7 0 3 3 2 1 7 2 16 16 13 11 8 9 6 5 8 6 10 9 2 13 11 8 1 5 9 17 18 12 8 9
6 3 4 4 4 4 7 6 7 10 16 11 6 4 4 5 1 2 2 2 9 7 3 16 9 16 18 11 8 8 10 12 16 12 11 12 14 7 10 11 14 18 15 11 12
3 1 2 4 1 9 5 5 9 5 7 4 10 16 8 7 8 7 4 3 1 1 3 5 8 11 17 17 17 15 13 18 17 18 12 12 12 13 12 14 19 18 13 13 16
3 2 1 11 7 8 3 1 6 7 5 3 3 12 6 10 11 6 7 4 6 2 3 1 4 10 14 20 17 20 22 18 18 16 16 19 15 12 15 8 16 21 16 19 21
5 4 3 4 4 5 2 4 6 13 6 5 10 13 6 2 9 10 10 10 5 1 1 2 3 5 10 10 15 13 24 23 21 15 15 15 13 13 10 11 21 26 23 27 29
Wind_Direction
330 328 326 324 323 322 321 320 321 322 322 322 321 318 313 304 294 284 268 255 228 213 175 183 192 208 211 248 222 182 245 222 179 164 132 146 138 139 126 139 122 162 150 158 158
327 325 323 321 319 318 317 316 315 317 318 319 320 318 314 308 299 284 275 253 230 217 202 208 188 194 223 225 205 226 237 262 186 151 149 153 147 144 150 143 104 120 133 149 159
331 324 320 319 317 315 314 314 313 313 315 315 318 319 317 315 314 295 213 223 217 212 190 186 183 200 228 203 186 166 249 259 179 150 144 147 142 153 166 202 180 156 150 157 162
327 327 325 318 314 313 313 313 312 310 310 311 314 317 314 312 281 150 117 91 208 202 198 190 182 200 241 212 171 237 257 246 136 143 141 152 155 163 175 298 170 163 158 160 169
327 325 323 322 316 311 313 312 310 308 306 305 308 310 310 285 258 256 269 274 194 199 195 187 181 189 240 203 176 219 290 159 151 151 140 135 148 132 218 137 146 153 163 170 176
326 324 323 321 317 315 313 310 309 304 301 299 300 300 294 264 256 237 240 202 201 196 191 192 198 202 247 161 319 39 99 107 133 139 142 132 134 100 150 149 150 160 170 180 184
324 321 319 320 319 316 314 310 306 300 296 293 289 287 278 265 247 198 149 158 180 194 189 187 196 183 199 145 60 126 107 99 124 139 131 128 155 231 162 162 163 171 177 184 193
328 323 319 319 318 317 315 311 307 300 294 285 276 274 261 260 241 218 210 163 151 153 192 189 190 190 199 109 77 166 155 142 157 161 142 191 74 154 169 171 176 182 185 190 197
331 328 321 321 319 318 318 315 309 302 293 274 260 248 262 238 242 204 186 171 162 169 178 175 186 180 159 177 150 206 180 166 163 189 153 204 32 174 179 187 184 192 196 199 202
334 331 327 327 322 321 322 316 305 298 288 265 241 271 238 160 95 128 181 161 151 163 138 158 149 178 154 194 200 189 182 180 180 187 189 201 238 180 184 192 199 201 204 204 208
335 333 331 333 327 326 323 325 311 289 265 223 216 233 155 197 286 197 192 175 146 158 169 182 185 195 192 200 248 189 197 191 192 181 188 221 232 204 191 201 205 210 210 213 214
333 332 330 336 332 332 334 71 62 333 303 266 257 250 244 246 294 204 183 166 157 180 144 161 209 201 181 181 168 190 189 197 172 170 202 214 232 217 197 210 206 206 215 218 220
334 332 328 337 338 3 32 83 11 339 262 282 245 242 237 229 219 219 177 164 175 178 188 194 186 164 170 170 163 182 191 190 213 147 191 195 257 222 213 216 214 218 219 223 223
329 332 330 334 359 352 147 3 339 325 285 258 230 244 191 191 221 219 196 172 169 196 174 209 152 167 176 186 181 190 206 175 159 178 229 211 289 211 209 210 213 218 217 222 223
324 327 323 324 325 332 280 312 323 121 297 149 173 187 183 187 148 196 194 188 179 168 191 187 173 175 181 183 189 218 172 169 186 183 190 188 254 254 191 216 217 221 218 220 221
319 323 316 315 320 327 321 316 132 199 240 264 160 168 159 210 179 133 174 182 170 145 221 220 178 190 181 171 184 141 121 114 125 189 239 181 206 258 197 219 227 222 223 222 220
317 318 314 306 301 291 285 266 188 223 341 210 191 172 195 188 197 174 181 182 176 177 198 181 210 178 190 171 163 188 182 215 229 223 259 109 194 254 240 240 240 219 221 223 221
317 314 314 302 270 261 202 168 218 199 213 1 190 133 194 168 212 175 178 193 201 181 167 193 208 205 193 219 181 195 207 223 228 231 252 118 218 240 246 263 255 248 239 231 223
321 316 319 292 251 227 178 214 217 194 241 228 264 226 205 198 209 197 195 199 195 195 194 186 223 177 207 176 177 171 213 237 230 77 240 219 245 275 270 259 251 250 237 230 225
331 323 317 289 265 187 204 236 227 234 320 252 227 223 215 193 193 198 189 199 195 197 203 188 208 198 180 179 147 218 155 175 219 218 235 221 249 237 225 236 242 249 235 239 230
335 323 331 13 141 180 227 228 238 258 261 300 257 238 235 220 208 198 205 205 203 188 195 158 248 134 167 202 193 168 190 162 193 235 228 239 237 213 216 222 238 252 245 249 232
348 303 215 3 239 217 235 220 244 250 237 239 268 254 231 212 201 209 219 232 198 170 190 196 206 219 200 118 207 215 210 204 215 185 244 259 248 190 238 271 266 263 271 269 227
329 283 278 262 275 262 312 287 272 261 242 232 231 233 302 237 236 249 183 23 69 185 187 171 213 211 215 193 186 214 181 196 210 203 211 233 243 206 249 264 263 258 269 259 220
330 316 333 42 54 13 351 286 270 256 252 251 276 254 225 218 184 194 239 42 8 122 115 179 197 213 225 223 216 200 196 194 205 219 220 229 243 248 253 250 265 252 254 248 220
308 335 351 346 356 336 300 294 307 302 316 278 235 242 242 240 230 231 247 295 266 143 157 170 210 207 235 233 228 239 219 205 214 229 222 218 210 231 240 242 243 265 243 232 220
273 294 315 300 298 312 285 343 340 347 306 307 300 337 288 237 243 233 227 222 254 292 306 1 225 201 225 228 226 230 235 229 226 236 240 244 232 235 249 254 256 253 240 226 215
250 261 284 286 298 304 275 12 325 334 291 315 5 342 295 38 341 298 285 288 278 335 107 308 230 182 234 223 221 244 236 230 231 228 235 229 231 233 229 231 240 244 232 229 220
Height
1536 1535 1533 1531 1529 1527 1525 1524 1523 1521 1519 1518 1517 1515 1513 1511 1509 1509 1508 1512 1512 1515 1517 1518 1519 1519 1519 1519 1518 1519 1519 1520 1518 1522 1525 1531 1533 1538 1539 1541 1542 1543 1545 1549 1553
1535 1533 1531 1529 1527 1525 1523 1522 1520 1519 1517 1516 1514 1512 1510 1508 1506 1504 1507 1507 1510 1512 1515 1517 1518 1518 1519 1518 1518 1518 1520 1514 1511 1513 1520 1528 1533 1536 1539 1541 1543 1544 1546 1550 1555
1533 1531 1529 1527 1525 1523 1521 1519 1517 1516 1514 1513 1512 1510 1508 1506 1504 1500 1499 1501 1505 1510 1514 1516 1518 1519 1518 1517 1517 1518 1515 1510 1511 1514 1518 1526 1532 1536 1537 1540 1541 1542 1544 1549 1554
1531 1529 1527 1525 1522 1520 1518 1516 1515 1513 1511 1510 1509 1508 1506 1505 1505 1499 1499 1500 1502 1507 1511 1514 1516 1517 1515 1514 1515 1516 1511 1512 1514 1517 1521 1527 1532 1535 1538 1538 1539 1544 1546 1550 1554
1529 1526 1524 1522 1520 1517 1515 1513 1512 1510 1508 1507 1505 1505 1504 1503 1498 1498 1498 1499 1500 1503 1507 1510 1513 1515 1512 1512 1514 1514 1511 1511 1515 1520 1523 1528 1532 1535 1538 1538 1540 1545 1550 1553 1556
1526 1524 1521 1518 1517 1515 1512 1510 1508 1506 1505 1503 1502 1502 1502 1501 1495 1495 1496 1497 1498 1500 1504 1509 1511 1512 1510 1511 1511 1512 1512 1514 1517 1523 1525 1527 1534 1536 1540 1541 1542 1545 1550 1554 1555
1523 1521 1518 1515 1513 1511 1509 1506 1504 1502 1501 1500 1499 1498 1498 1493 1493 1494 1494 1496 1497 1498 1502 1507 1509 1511 1509 1510 1511 1513 1515 1516 1521 1524 1527 1529 1535 1533 1538 1542 1544 1547 1549 1552 1555
1520 1517 1514 1512 1509 1507 1504 1501 1499 1498 1497 1496 1495 1495 1492 1489 1490 1491 1493 1495 1496 1500 1504 1506 1508 1510 1510 1511 1512 1512 1512 1518 1523 1523 1529 1529 1534 1535 1539 1540 1543 1546 1548 1550 1552
1517 1514 1511 1509 1506 1503 1500 1497 1495 1493 1493 1493 1494 1494 1488 1486 1486 1488 1492 1494 1496 1500 1503 1505 1507 1509 1510 1509 1513 1513 1514 1517 1526 1523 1526 1531 1531 1534 1539 1542 1542 1545 1546 1549 1551
1515 1511 1508 1505 1502 1499 1496 1493 1490 1489 1489 1490 1490 1495 1485 1485 1485 1487 1490 1493 1495 1499 1503 1505 1505 1505 1509 1508 1517 1513 1514 1515 1519 1520 1523 1529 1530 1533 1535 1538 1541 1543 1545 1546 1548
1512 1508 1505 1502 1499 1496 1494 1491 1492 1490 1486 1484 1484 1481 1480 1482 1483 1484 1487 1491 1493 1497 1498 1502 1501 1502 1498 1498 1500 1501 1503 1510 1512 1515 1520 1523 1525 1528 1532 1534 1537 1540 1543 1543 1543
1510 1506 1502 1500 1496 1494 1491 1491 1492 1495 1486 1478 1477 1477 1478 1480 1483 1482 1484 1489 1492 1493 1496 1502 1498 1493 1497 1501 1501 1501 1505 1509 1512 1514 1517 1518 1520 1521 1525 1524 1529 1533 1536 1538 1541
1508 1504 1500 1497 1494 1494 1490 1492 1492 1492 1489 1471 1467 1466 1469 1475 1477 1478 1481 1482 1487 1492 1491 1491 1489 1494 1496 1500 1501 1503 1502 1509 1509 1515 1517 1519 1518 1519 1517 1522 1527 1529 1530 1533 1535
1505 1502 1498 1495 1496 1493 1492 1491 1491 1490 1486 1467 1463 1459 1461 1467 1470 1471 1476 1480 1484 1486 1491 1489 1489 1491 1494 1496 1494 1505 1499 1502 1509 1515 1524 1516 1523 1514 1510 1517 1519 1520 1523 1524 1528
1503 1500 1496 1494 1495 1494 1494 1491 1490 1490 1495 1459 1458 1458 1458 1461 1460 1463 1469 1475 1478 1482 1486 1483 1486 1490 1493 1490 1492 1496 1495 1502 1508 1514 1520 1523 1522 1500 1511 1512 1506 1507 1511 1515 1518
1499 1497 1493 1492 1492 1492 1491 1490 1491 1492 1493 1457 1453 1455 1459 1459 1458 1461 1466 1471 1475 1480 1483 1481 1483 1483 1482 1486 1490 1497 1502 1511 1515 1513 1521 1512 1514 1499 1504 1494 1491 1499 1502 1504 1509
1495 1493 1491 1487 1489 1487 1488 1490 1491 1489 1461 1452 1449 1451 1452 1455 1456 1456 1461 1465 1469 1485 1486 1484 1480 1479 1480 1485 1491 1492 1496 1515 1520 1519 1520 1516 1518 1496 1485 1482 1480 1483 1489 1493 1499
1491 1487 1485 1483 1482 1483 1486 1489 1488 1464 1455 1449 1447 1449 1451 1450 1451 1452 1456 1462 1463 1465 1478 1484 1494 1477 1474 1473 1483 1489 1489 1503 1530 1524 1513 1522 1518 1488 1477 1477 1478 1480 1483 1489 1492
1486 1481 1479 1477 1478 1479 1484 1481 1460 1462 1451 1450 1447 1449 1446 1445 1446 1448 1449 1450 1453 1458 1466 1478 1479 1469 1471 1471 1472 1491 1496 1482 1499 1521 1515 1498 1494 1478 1473 1472 1473 1474 1478 1478 1479
1484 1478 1476 1475 1475 1477 1479 1465 1460 1455 1453 1450 1451 1445 1446 1442 1445 1445 1448 1438 1447 1451 1455 1465 1476 1464 1463 1469 1475 1472 1477 1496 1500 1518 1523 1503 1504 1487 1476 1469 1467 1469 1469 1470 1472
1484 1479 1475 1472 1473 1476 1467 1462 1458 1454 1455 1453 1447 1445 1442 1440 1439 1441 1438 1436 1437 1445 1451 1460 1465 1470 1466 1463 1464 1478 1479 1484 1478 1487 1496 1506 1491 1470 1466 1463 1463 1462 1464 1463 1464
1484 1481 1476 1475 1476 1473 1465 1462 1457 1452 1450 1451 1449 1445 1441 1439 1438 1439 1437 1433 1430 1437 1448 1450 1457 1468 1462 1458 1457 1456 1461 1466 1476 1503 1494 1486 1478 1459 1461 1462 1463 1458 1459 1457 1459
1485 1479 1475 1475 1470 1467 1466 1461 1456 1451 1448 1446 1443 1442 1440 1440 1443 1439 1436 1436 1434 1434 1437 1447 1453 1470 1465 1462 1463 1459 1462 1461 1466 1474 1481 1486 1476 1457 1458 1460 1459 1457 1454 1453 1455
1487 1481 1476 1475 1477 1476 1474 1462 1456 1450 1447 1446 1443 1442 1443 1441 1441 1440 1436 1435 1436 1436 1437 1439 1443 1449 1456 1451 1446 1460 1459 1459 1456 1468 1468 1469 1463 1458 1455 1454 1452 1451 1448 1450 1451
1488 1485 1486 1480 1477 1481 1479 1471 1462 1454 1449 1445 1441 1441 1442 1443 1441 1440 1440 1437 1435 1438 1439 1437 1446 1447 1439 1439 1444 1446 1448 1451 1455 1451 1462 1454 1461 1451 1449 1449 1446 1448 1444 1447 1448
1488 1486 1486 1484 1482 1479 1474 1468 1466 1464 1460 1445 1445 1451 1445 1444 1441 1439 1438 1439 1436 1437 1437 1441 1440 1441 1439 1435 1439 1445 1439 1441 1445 1442 1450 1444 1450 1442 1442 1444 1444 1443 1444 1443 1443
1486 1485 1485 1482 1480 1478 1472 1472 1469 1470 1461 1458 1459 1455 1448 1446 1448 1446 1444 1442 1440 1442 1443 1444 1441 1444 1441 1432 1437 1453 1434 1432 1434 1436 1439 1449 1441 1436 1439 1439 1438 1436 1437 1437 1438